SCP
0 0 0 0 0 0 0 0 0 0 0 0 0 0 0 0 0 0 0 0 0 0 0 0 0 0 0 0 0 0 0 0 0 0 0 0 0 0 0 0 0 0 0 0 0 0 0 0 0 0 1 0 1 0
0 0 0 0 0 0 0 0 0 0 0 0 0 0 0 0 0 0 0 0 0 0 0 0 0 0 0 0 0 0 0 0 2 1 0 0 0 0 0 0 0 0 0 0 0 0 0 0 0 0 0 0 0 1
0 0 0 0 0 0 0 0 0 0 0 0 0 0 0 0 0 0 0 0 0 0 0 0 0 0 0 0 0 0 0 0 0 0 0 1 1 0 0 0 0 0 0 0 0 0 0 0 0 1 1 1 1 1
0 0 0 0 0 0 0 0 0 0 0 0 0 0 0 0 0 0 0 0 0 0 0 0 0 0 0 0 0 0 0 0 0 0 0 0 0 0 0 0 0 0 1 0 0 0 0 0 2 1 0 0 1 1
0 0 0 0 0 0 0 0 0 0 0 0 0 0 0 0 0 0 0 0 0 0 0 0 0 0 0 0 0 0 0 0 0 0 0 0 0 0 0 0 0 0 0 0 0 1 1 1 1 0 0 0 0 1
0 0 0 0 0 0 0 0 0 0 0 0 0 0 0 0 0 0 0 0 0 0 0 0 0 0 0 0 0 0 0 0 0 0 0 0 0 0 0 0 0 0 0 0 0 0 1 0 0 0 0 0 1 1
0 0 0 0 0 0 0 0 0 0 0 0 0 0 0 0 0 0 0 0 0 0 0 0 0 0 0 0 0 0 0 0 0 0 0 0 0 0 0 0 -0 0 0 0 0 0 0 0 0 0 0 0 0 0
0 0 0 0 0 0 0 0 0 0 0 0 0 0 0 0 0 0 0 0 0 0 0 0 0 0 0 0 0 0 0 0 0 0 0 0 0 0 0 0 -0 0 0 0 0 0 0 0 0 0 0 0 0 0
0 0 0 0 0 0 0 0 0 0 0 0 0 0 0 0 0 0 0 0 0 0 0 0 0 0 0 0 0 0 0 0 0 0 0 0 0 0 0 0 -0 0 0 0 0 0 0 0 0 0 0 0 0 0
0 0 0 0 0 0 0 0 0 0 0 0 0 0 0 0 0 0 0 0 0 0 0 0 0 0 0 0 0 0 0 0 0 0 0 0 0 0 0 0 -0 0 0 0 0 0 0 0 0 0 0 0 0 0
0 0 0 0 0 0 0 0 0 0 0 0 0 0 0 0 0 0 0 0 0 0 0 0 0 0 0 0 0 0 0 0 0 0 0 0 0 0 0 0 0 0 0 0 0 0 0 0 0 0 0 0 0 0
0 0 0 0 0 0 0 0 0 0 0 0 0 0 0 0 0 0 0 0 0 0 0 0 0 0 0 0 0 0 0 0 0 0 0 0 0 0 0 0 0 0 0 0 0 0 0 0 0 0 0 0 0 0
0 0 0 0 0 0 0 0 0 0 0 0 0 0 0 0 0 0 0 0 0 0 0 0 0 0 0 0 0 0 0 0 0 0 0 0 0 0 0 0 0 0 0 0 0 0 0 0 0 1 0 1 1 1
0 0 0 0 0 0 0 0 0 0 0 0 0 0 0 0 0 0 0 0 0 0 0 0 0 0 0 0 0 0 0 0 0 0 0 0 1 1 0 0 0 0 0 0 0 0 0 0 1 0 1 1 1 1
0 0 0 0 0 0 0 0 0 0 0 0 0 0 0 0 0 0 0 0 0 0 0 0 0 0 0 0 0 0 0 0 0 0 0 0 1 1 1 1 1 0 0 0 0 1 1 1 1 1 1 1 1 1
-0 0 0 0 0 0 0 0 0 0 0 0 0 0 0 0 0 0 0 0 0 0 0 0 0 0 0 0 0 0 0 0 0 0 0 0 1 1 1 1 0 0 0 1 1 1 1 1 1 1 1 1 1 1
0 0 0 0 0 0 0 0 0 0 0 0 0 0 0 0 0 0 0 0 0 0 0 0 0 0 0 0 0 0 0 0 0 0 0 0 1 0 0 0 0 0 0 1 0 0 1 1 1 0 1 1 0 0
0 0 0 -0 0 0 0 0 0 0 0 0 0 0 0 0 0 0 0 0 0 0 0 0 0 0 0 0 0 0 0 0 0 0 0 0 0 0 0 0 0 0 0 0 0 0 0 1 0 1 1 1 0 0
0 0 0 0 0 0 0 0 0 0 0 0 0 0 0 0 0 0 0 0 0 0 0 0 0 0 0 0 0 0 0 0 0 0 0 0 0 0 0 0 0 0 0 0 0 0 0 0 0 0 0 0 0 0
0 0 0 0 0 0 0 0 0 0 0 0 0 0 0 0 0 0 0 0 0 0 0 0 0 0 0 0 0 0 0 0 0 0 0 0 0 0 0 0 0 0 0 0 0 0 0 0 0 0 0 0 0 0
-0 0 0 0 0 0 0 0 0 0 0 0 0 0 0 0 0 0 0 0 0 0 0 0 0 0 0 0 0 0 0 0 0 0 0 0 0 0 0 0 0 0 1 0 0 0 0 0 0 0 0 0 0 0
0 -0 0 0 0 0 0 0 0 0 0 0 0 0 0 0 0 0 0 0 0 0 0 0 0 0 0 0 0 0 0 0 0 0 0 0 0 0 0 0 0 0 0 0 0 0 0 0 0 0 0 0 0 0
-0 -0 -0 0 0 0 0 0 0 0 0 0 0 0 0 0 0 0 0 0 0 0 -0 -0 -0 -0 0 0 -0 0 0 0 0 0 0 0 0 0 0 0 0 0 0 0 0 0 0 0 0 0 0 0 0 0
-0 0 0 -0 -0 -0 -0 -0 0 0 0 0 0 0 0 0 -0 0 0 0 0 0 0 0 -0 0 -0 0 0 -0 0 0 0 0 0 0 0 0 0 0 0 0 0 0 0 0 0 0 0 0 0 0 0 0
0 0 0 0 0 0 0 0 0 0 -0 -0 0 -0 0 -0 -0 -0 0 0 0 0 0 -0 -0 -0 -0 0 -0 -0 0 0 0 0 0 0 0 0 0 0 0 0 0 0 0 0 0 0 0 0 0 0 0 0
0 0 0 0 0 0 0 0 -0 -0 -0 -0 0 -0 -0 -0 0 0 -0 -0 -0 -0 0 0 0 0 0 0 0 0 0 0 0 0 0 0 0 0 0 0 0 0 0 0 0 0 0 0 0 0 0 0 0 0
0 0 0 0 0 -0 0 0 -0 0 0 0 -0 -0 -0 0 0 0 -0 0 0 0 0 0 0 0 0 0 0 0 0 0 0 0 0 0 0 0 0 0 0 0 0 0 0 0 0 0 0 0 0 0 0 0
0 0 0 0 0 0 0 0 0 0 0 0 0 0 0 0 0 -0 -0 -0 0 0 0 -0 0 0 0 0 0 0 0 0 0 0 0 0 0 0 0 0 0 0 0 0 0 0 0 0 0 0 0 0 0 0
0 0 0 0 0 0 0 0 0 0 0 0 0 0 0 0 0 0 0 0 0 0 -0 -0 -0 -0 -0 0 -0 0 0 0 0 0 0 0 0 0 0 0 0 0 0 0 0 0 0 0 0 0 0 0 0 0
0 0 0 0 0 0 0 0 0 0 0 0 -0 -0 0 0 -0 0 0 0 -0 -0 0 -0 -0 -0 -0 0 0 0 0 0 0 0 0 0 0 0 -0 -0 0 0 0 0 0 0 0 0 0 0 0 0 0 0
0 0 0 0 0 0 0 -0 0 -0 0 -0 -0 -0 -0 -0 -0 -0 -0 -0 0 0 0 0 0 0 0 0 0 0 0 0 0 0 0 0 0 0 0 0 0 0 0 0 0 0 0 0 0 0 0 0 0 0
0 0 -0 -0 0 0 0 0 0 0 0 0 0 0 0 -0 0 0 -0 0 0 0 0 0 0 0 0 0 0 0 0 0 0 0 0 0 0 0 0 0 0 0 0 0 0 0 0 0 0 0 0 0 0 0
0 0 0 0 0 0 0 0 0 0 0 0 0 0 0 0 0 0 0 0 0 0 0 0 0 0 0 0 0 0 0 0 0 0 0 0 0 0 0 0 0 0 0 0 0 0 0 0 0 0 0 0 0 0
Wind_Speed_500mb
66 69 80 68 74 74 63 56 48 43 38 34 31 28 25 23 22 21 15 23 14 23 15 10 17 14 9 15 17 8 10 18 13 22 24 21 24 25 23 26 24 13 22 22 22 26 31 18 5 8 12 20 27 22
65 78 90 77 72 71 62 55 48 43 39 34 30 27 25 24 24 24 10 18 15 16 12 13 21 22 17 7 9 5 7 6 15 10 19 17 20 11 12 20 31 23 22 18 20 11 6 10 15 23 26 24 26 21
63 77 78 81 81 72 61 54 48 43 38 33 30 27 24 24 24 26 12 13 8 17 30 30 19 21 26 24 14 11 7 7 0 5 16 10 13 19 18 28 34 22 17 14 20 27 28 19 23 15 16 21 26 28
65 78 87 84 82 68 60 54 48 42 36 31 28 25 23 22 23 23 8 12 8 9 12 12 19 20 16 23 26 27 11 6 12 14 21 13 18 18 22 32 24 17 6 14 20 30 38 45 7 3 20 24 24 22
77 76 86 86 72 66 60 53 45 39 32 28 23 21 20 20 21 20 12 10 12 7 12 5 7 18 13 15 20 23 25 20 20 23 17 17 31 30 24 27 28 34 30 23 26 19 8 24 15 21 28 32 26 23
98 108 84 72 68 63 56 48 41 35 28 22 18 16 17 18 17 10 8 13 18 11 8 7 7 11 15 18 21 22 23 22 28 27 25 32 38 13 15 27 47 49 51 49 39 36 18 27 34 36 39 33 26 32
88 85 77 68 62 56 49 42 36 30 25 20 15 13 14 18 21 12 4 8 15 18 7 9 11 14 15 15 18 25 25 25 25 35 42 39 40 22 22 29 55 45 42 40 39 32 40 44 46 45 42 41 43 42
83 75 69 62 56 49 43 38 32 27 23 19 14 14 16 18 13 5 8 6 25 8 7 7 5 9 18 21 22 22 23 25 21 26 28 31 42 47 27 49 57 50 59 60 57 54 58 60 59 55 45 47 50 53
75 69 62 55 49 43 38 32 29 26 24 20 21 21 25 11 9 8 5 13 16 5 10 8 11 8 11 20 16 11 21 16 23 25 36 25 23 19 25 59 63 54 52 54 53 54 53 53 52 47 45 55 57 56
66 58 53 47 41 36 33 30 28 27 26 31 35 7 11 10 14 22 7 5 7 9 9 12 5 6 7 16 20 15 17 16 15 19 29 25 31 53 56 61 59 52 50 51 52 50 47 48 45 45 48 45 44 44
58 53 47 42 37 32 28 27 27 30 36 22 9 5 7 30 14 6 9 11 12 8 14 17 14 12 8 9 10 16 7 9 14 20 20 15 21 35 52 55 54 54 53 54 54 52 50 46 43 40 40 39 38 37
50 46 42 38 33 29 25 25 32 32 17 18 11 21 20 8 8 9 11 8 10 9 12 15 13 16 7 3 10 8 10 8 12 9 10 19 22 18 7 16 15 14 20 24 27 30 31 30 30 27 24 24 22 21
45 41 37 33 30 27 23 23 26 24 27 23 9 13 9 8 3 11 15 9 9 10 11 14 16 11 12 13 13 7 10 12 16 10 22 16 3 9 8 4 10 7 10 13 14 12 13 15 13 13 16 16 17 17
43 39 35 31 27 26 26 26 32 37 17 6 9 2 10 10 10 7 9 12 17 8 6 6 7 13 10 10 11 9 10 10 11 11 21 2 33 17 9 10 16 19 17 18 13 13 14 11 11 9 10 12 12 11
39 36 32 27 24 23 23 25 27 15 3 4 5 5 11 4 6 4 11 9 6 1 5 9 14 11 11 7 8 8 8 9 9 18 14 21 21 20 21 21 17 16 16 16 14 13 12 10 9 8 8 8 9 9
35 28 28 24 20 18 17 16 13 6 2 3 5 7 5 9 15 10 9 11 9 8 6 12 9 9 12 9 13 15 9 10 7 19 34 25 29 24 20 18 17 17 17 16 15 14 12 11 10 7 5 8 9 7
22 13 20 18 17 15 13 12 5 3 1 3 8 9 8 6 8 4 12 9 9 13 13 9 8 16 10 17 29 19 21 18 37 25 10 19 25 28 24 21 20 21 20 19 19 18 18 16 15 14 7 7 9 1
22 18 16 15 12 12 7 6 3 1 6 11 10 6 8 9 11 13 13 20 17 23 18 12 11 16 16 16 20 11 4 33 38 32 24 25 20 15 24 30 26 25 25 24 23 23 18 15 18 10 7 6 9 15
14 9 15 15 17 12 4 4 2 4 7 5 9 13 15 17 20 23 24 20 21 17 8 7 12 15 20 38 41 41 34 28 41 41 40 33 26 23 24 27 32 30 30 27 23 19 13 10 6 7 13 22 15 9
12 12 13 14 16 9 6 3 3 5 8 8 10 18 20 22 22 24 28 33 35 31 19 11 17 30 37 39 36 44 43 39 39 41 39 41 32 32 35 34 40 34 30 29 25 20 13 3 3 3 6 8 11 20
17 18 18 17 6 4 3 2 6 7 10 11 10 15 17 22 26 30 31 33 43 51 40 45 47 43 38 40 41 41 47 45 44 41 38 37 37 43 39 40 34 35 31 31 24 13 6 8 9 15 22 30 37 40
9 17 7 8 4 3 5 5 8 11 10 16 23 24 24 23 25 31 30 33 41 48 47 47 49 46 49 45 36 41 43 48 47 46 46 45 40 40 39 36 36 39 35 32 26 22 17 18 21 27 28 30 26 27
13 12 6 3 2 3 8 5 6 5 6 8 6 8 9 12 11 9 8 25 40 40 42 43 47 48 51 48 49 46 41 43 45 44 42 37 34 36 34 30 24 24 25 11 7 16 23 26 29 30 30 28 24 26
17 4 4 3 6 6 3 5 7 8 6 7 7 8 12 10 9 8 11 25 12 14 15 19 23 22 27 28 33 36 37 33 33 30 23 24 29 23 28 23 27 27 23 24 22 23 21 21 26 25 14 26 21 23
5 2 3 6 5 3 5 6 6 7 7 7 8 14 14 9 5 7 9 17 27 26 28 25 27 26 29 31 32 34 29 27 26 15 24 10 4 3 5 8 3 4 3 7 15 23 32 36 31 22 17 27 23 20
4 3 4 3 2 5 5 6 4 7 8 7 7 10 11 8 7 5 8 28 31 31 35 34 30 30 25 21 24 10 15 14 17 19 5 9 11 9 18 28 32 31 21 22 27 27 26 27 24 24 26 25 23 17
5 5 7 8 9 9 7 10 14 11 6 8 8 11 5 4 4 5 13 21 20 25 21 15 11 10 10 14 13 15 10 11 11 28 32 29 30 28 26 27 27 19 10 11 13 16 19 19 20 17 15 15 17 15
8 8 6 6 6 9 6 6 5 5 5 7 8 3 5 4 3 10 5 13 16 21 23 31 33 26 27 30 33 35 39 34 30 27 26 25 23 24 25 28 28 20 15 13 15 12 9 8 13 17 17 17 17 16
9 10 9 11 10 8 9 7 6 7 8 5 5 2 3 6 10 5 7 12 16 22 25 23 30 27 28 26 25 22 28 28 26 28 26 21 23 22 17 15 18 17 15 14 13 15 16 16 15 15 14 14 14 14
8 13 8 8 7 7 8 9 10 10 8 7 4 10 14 16 14 7 13 15 16 18 19 19 18 17 17 18 20 21 19 18 18 15 14 12 12 12 12 11 11 10 11 13 15 22 24 16 18 14 12 11 11 9
7 8 10 12 3 6 11 12 7 7 11 13 17 10 6 8 15 19 15 13 17 16 17 20 22 22 20 17 14 12 15 17 17 15 14 10 10 9 8 9 8 8 8 8 8 9 10 11 11 12 12 11 10 10
9 17 17 11 8 6 8 10 9 12 11 17 14 13 12 11 4 7 11 9 10 12 15 17 17 18 17 16 17 17 16 12 12 13 14 11 11 10 8 8 8 9 9 9 10 10 11 10 10 9 9 9 9 9
12 22 23 18 15 10 12 7 2 6 3 6 12 15 13 9 7 5 6 13 14 13 10 11 11 13 13 14 15 16 15 15 18 18 16 13 10 15 11 8 9 9 9 9 9 10 10 10 9 9 9 8 8 7
Wind_Direction_500mb
211 209 213 207 195 198 202 205 210 207 206 208 208 211 211 207 203 189 233 223 211 253 254 258 238 255 246 245 260 58 237 203 251 241 253 242 247 251 236 249 291 228 201 233 248 268 263 44 340 295 10 328 327 322
216 210 214 201 191 194 199 201 201 199 200 202 204 207 207 203 201 193 214 232 227 237 293 273 243 239 239 275 315 282 347 312 3 281 238 267 258 244 269 264 224 235 269 302 304 342 320 316 300 298 292 289 300 301
209 203 208 187 193 191 193 194 192 193 196 197 200 204 205 203 199 189 192 222 232 256 265 243 256 245 233 229 227 271 166 350 9 342 323 298 287 302 266 227 252 232 214 241 271 275 284 322 309 317 318 304 293 271
196 199 196 190 183 184 185 184 186 188 191 194 196 199 200 203 202 200 196 231 214 277 275 166 216 244 233 218 226 227 250 312 293 276 277 271 268 261 265 281 295 291 107 263 266 271 279 265 85 314 320 311 309 289
193 204 203 172 175 175 176 177 179 182 187 191 192 193 195 199 200 203 219 229 216 226 320 335 269 217 221 206 216 225 232 245 258 255 236 252 260 270 269 273 272 258 259 265 268 350 281 287 348 306 310 303 296 302
179 184 160 159 166 167 169 172 175 179 184 189 191 186 188 188 185 156 216 249 226 214 277 259 154 218 206 212 213 215 220 229 233 247 251 256 265 296 263 253 254 250 265 273 277 271 303 279 292 296 293 284 283 295
151 145 146 159 161 163 165 169 174 177 181 185 186 176 175 173 164 208 301 200 203 180 242 251 217 181 195 202 210 218 219 227 236 246 244 257 262 223 254 260 265 276 275 276 277 263 266 278 288 289 292 288 289 286
128 141 152 156 159 162 165 169 172 174 174 174 167 159 157 156 145 167 260 213 167 183 235 263 246 199 189 211 209 212 217 218 229 238 249 244 251 247 251 256 266 272 271 271 270 268 271 280 280 278 282 283 287 287
142 147 151 154 158 161 164 166 166 164 161 157 145 134 121 119 167 201 166 150 157 211 276 216 248 164 175 230 201 180 228 223 231 224 235 244 238 234 245 249 256 261 266 269 271 272 275 275 276 279 280 290 289 287
141 143 148 151 154 157 158 157 155 151 149 142 128 105 153 178 181 131 37 146 200 219 235 254 268 235 241 187 198 223 187 235 238 217 238 237 247 254 255 257 260 264 272 277 281 279 278 281 282 285 285 288 292 292
143 144 144 146 147 147 147 147 145 144 141 133 154 111 131 141 126 176 169 205 184 226 214 235 264 284 162 267 299 197 286 259 239 235 217 245 242 239 244 252 259 262 264 264 266 269 271 271 274 277 281 289 297 302
134 138 139 138 136 135 136 141 145 133 160 168 140 130 138 188 196 200 186 196 214 215 159 213 185 218 226 267 267 241 245 240 249 302 208 242 260 263 300 295 291 285 280 274 271 268 268 270 274 282 294 301 310 316
129 128 125 124 124 122 122 135 155 163 139 134 130 165 190 166 151 206 186 188 185 175 153 183 178 204 184 227 248 276 243 250 282 254 246 255 244 121 85 327 316 301 319 315 304 300 294 289 293 302 305 313 323 330
115 114 115 117 118 117 114 127 138 136 116 191 156 72 207 173 215 197 177 93 83 97 131 232 235 200 196 192 245 235 244 278 258 245 232 57 39 36 3 324 305 308 313 316 320 316 310 324 306 313 322 331 338 342
110 110 106 101 102 106 108 119 143 123 121 191 203 210 206 82 116 113 74 122 128 231 230 233 238 238 205 229 234 238 245 243 237 240 266 66 41 26 6 352 345 331 322 313 314 317 316 315 324 321 345 358 14 37
96 87 89 87 86 90 103 103 98 126 179 222 233 224 165 240 160 178 205 163 195 242 234 243 258 266 215 220 218 220 222 234 56 35 30 26 20 12 357 348 348 339 330 322 321 321 321 322 326 319 5 40 48 72
95 107 83 78 76 86 94 87 87 108 162 223 211 238 284 323 317 343 174 249 157 239 237 243 239 223 255 238 236 247 245 270 306 23 39 15 0 0 348 346 345 338 331 330 328 327 320 315 311 309 291 354 338 4
88 79 68 59 76 54 50 62 70 235 234 220 237 196 224 256 263 255 234 221 216 238 252 260 316 252 248 247 259 244 336 335 337 350 353 338 331 342 348 345 338 338 338 334 330 328 327 324 316 356 328 307 239 240
110 70 47 42 61 81 81 66 50 279 248 273 254 255 252 254 251 252 248 234 218 242 263 215 239 248 248 262 278 283 323 338 325 318 315 310 321 319 320 333 329 324 323 321 321 315 313 325 328 328 257 258 258 267
40 29 31 38 49 46 24 48 1 304 269 355 262 256 259 261 260 248 238 233 219 207 218 226 241 252 265 280 308 297 285 290 297 303 293 288 298 299 295 295 296 310 311 306 295 283 294 289 54 170 121 123 119 115
28 4 21 43 9 6 294 286 247 255 281 263 267 253 271 269 255 240 238 234 230 232 230 239 253 261 272 274 277 288 286 285 278 282 287 295 295 291 301 299 296 302 302 292 284 264 229 214 170 145 134 135 137 131
348 8 34 351 20 346 287 240 278 312 278 275 285 268 265 268 247 242 237 234 231 238 241 246 253 261 263 263 274 282 280 275 278 273 280 281 285 297 285 287 298 303 299 288 281 226 203 211 196 170 155 152 148 141
353 6 348 339 322 291 269 278 273 273 276 287 308 275 239 248 245 237 234 234 242 247 249 254 258 261 266 278 275 274 272 271 274 273 279 287 293 292 288 289 291 292 300 306 269 202 207 205 193 185 175 156 148 128
357 342 309 267 232 262 291 230 242 263 247 256 245 278 277 260 235 255 250 254 271 251 228 277 278 279 286 280 282 277 283 286 283 273 283 300 299 284 271 276 283 278 290 277 265 247 209 179 163 159 146 120 134 120
297 279 194 269 244 260 264 277 247 255 265 246 258 266 291 320 273 265 284 13 354 353 353 339 322 311 296 291 281 280 279 288 292 292 290 292 262 244 37 52 1 318 240 183 132 122 118 121 124 132 138 110 97 94
274 205 185 283 279 240 264 276 309 323 309 294 269 306 334 311 279 356 26 355 347 341 328 320 314 307 295 293 297 276 249 257 247 252 233 203 163 151 119 103 91 77 90 115 115 117 116 121 118 114 104 96 112 89
273 253 231 245 269 274 288 265 283 293 280 269 321 343 335 274 274 356 4 8 37 29 11 348 328 328 335 328 311 291 274 211 186 122 114 113 107 103 102 94 86 81 79 97 101 104 104 92 85 77 75 77 90 95
252 266 240 260 280 251 284 301 254 244 253 269 293 291 304 350 333 353 53 18 29 33 47 56 70 76 78 83 81 84 89 91 89 89 91 87 84 86 87 84 81 65 48 58 65 77 91 114 123 111 105 101 96 89
246 239 228 261 249 228 226 240 256 248 248 273 311 313 308 0 19 170 138 48 19 17 32 32 38 59 66 69 76 89 98 93 72 64 61 55 45 48 57 49 55 70 83 89 99 95 100 105 105 101 100 97 89 86
250 210 216 236 217 222 224 197 247 278 307 222 144 108 74 58 81 108 78 51 16 26 35 38 36 34 39 41 51 55 47 40 38 44 50 55 62 71 78 84 78 74 78 80 83 74 76 78 80 87 94 93 82 69
251 228 247 231 247 162 186 189 170 128 108 128 138 126 130 106 95 84 61 29 29 36 33 35 36 38 41 44 46 51 50 43 44 55 72 68 72 75 72 67 68 76 82 94 94 91 95 99 95 87 81 76 75 72
239 247 332 0 63 133 162 209 199 188 192 185 180 173 180 182 149 65 28 13 30 39 37 29 32 32 38 44 47 48 60 51 52 55 60 60 61 60 56 62 68 83 91 93 98 95 93 95 93 83 67 56 48 44
9 7 10 1 0 10 358 343 192 154 157 112 85 70 60 68 79 87 75 39 20 17 14 15 26 33 44 49 47 40 45 48 42 48 54 62 88 99 66 44 61 70 78 86 86 86 86 84 76 68 55 44 29 23
Wind_Speed_850mb
66 69 80 68 74 74 63 56 48 43 38 34 31 28 25 23 22 21 15 23 14 23 15 10 17 14 9 15 17 8 10 18 13 22 24 21 24 25 23 26 24 13 22 22 22 26 31 18 5 8 12 20 27 22
65 78 90 77 72 71 62 55 48 43 39 34 30 27 25 24 24 24 10 18 15 16 12 13 21 22 17 7 9 5 7 6 15 10 19 17 20 11 12 20 31 23 22 18 20 11 6 10 15 23 26 24 26 21
63 77 78 81 81 72 61 54 48 43 38 33 30 27 24 24 24 26 12 13 8 17 30 30 19 21 26 24 14 11 7 7 0 5 16 10 13 19 18 28 34 22 17 14 20 27 28 19 23 15 16 21 26 28
65 78 87 84 82 68 60 54 48 42 36 31 28 25 23 22 23 23 8 12 8 9 12 12 19 20 16 23 26 27 11 6 12 14 21 13 18 18 22 32 24 17 6 14 20 30 38 45 7 3 20 24 24 22
77 76 86 86 72 66 60 53 45 39 32 28 23 21 20 20 21 20 12 10 12 7 12 5 7 18 13 15 20 23 25 20 20 23 17 17 31 30 24 27 28 34 30 23 26 19 8 24 15 21 28 32 26 23
98 108 84 72 68 63 56 48 41 35 28 22 18 16 17 18 17 10 8 13 18 11 8 7 7 11 15 18 21 22 23 22 28 27 25 32 38 13 15 27 47 49 51 49 39 36 18 27 34 36 39 33 26 32
88 85 77 68 62 56 49 42 36 30 25 20 15 13 14 18 21 12 4 8 15 18 7 9 11 14 15 15 18 25 25 25 25 35 42 39 40 22 22 29 55 45 42 40 39 32 40 44 46 45 42 41 43 42
83 75 69 62 56 49 43 38 32 27 23 19 14 14 16 18 13 5 8 6 25 8 7 7 5 9 18 21 22 22 23 25 21 26 28 31 42 47 27 49 57 50 59 60 57 54 58 60 59 55 45 47 50 53
75 69 62 55 49 43 38 32 29 26 24 20 21 21 25 11 9 8 5 13 16 5 10 8 11 8 11 20 16 11 21 16 23 25 36 25 23 19 25 59 63 54 52 54 53 54 53 53 52 47 45 55 57 56
66 58 53 47 41 36 33 30 28 27 26 31 35 7 11 10 14 22 7 5 7 9 9 12 5 6 7 16 20 15 17 16 15 19 29 25 31 53 56 61 59 52 50 51 52 50 47 48 45 45 48 45 44 44
58 53 47 42 37 32 28 27 27 30 36 22 9 5 7 30 14 6 9 11 12 8 14 17 14 12 8 9 10 16 7 9 14 20 20 15 21 35 52 55 54 54 53 54 54 52 50 46 43 40 40 39 38 37
50 46 42 38 33 29 25 25 32 32 17 18 11 21 20 8 8 9 11 8 10 9 12 15 13 16 7 3 10 8 10 8 12 9 10 19 22 18 7 16 15 14 20 24 27 30 31 30 30 27 24 24 22 21
45 41 37 33 30 27 23 23 26 24 27 23 9 13 9 8 3 11 15 9 9 10 11 14 16 11 12 13 13 7 10 12 16 10 22 16 3 9 8 4 10 7 10 13 14 12 13 15 13 13 16 16 17 17
43 39 35 31 27 26 26 26 32 37 17 6 9 2 10 10 10 7 9 12 17 8 6 6 7 13 10 10 11 9 10 10 11 11 21 2 33 17 9 10 16 19 17 18 13 13 14 11 11 9 10 12 12 11
39 36 32 27 24 23 23 25 27 15 3 4 5 5 11 4 6 4 11 9 6 1 5 9 14 11 11 7 8 8 8 9 9 18 14 21 21 20 21 21 17 16 16 16 14 13 12 10 9 8 8 8 9 9
35 28 28 24 20 18 17 16 13 6 2 3 5 7 5 9 15 10 9 11 9 8 6 12 9 9 12 9 13 15 9 10 7 19 34 25 29 24 20 18 17 17 17 16 15 14 12 11 10 7 5 8 9 7
22 13 20 18 17 15 13 12 5 3 1 3 8 9 8 6 8 4 12 9 9 13 13 9 8 16 10 17 29 19 21 18 37 25 10 19 25 28 24 21 20 21 20 19 19 18 18 16 15 14 7 7 9 1
22 18 16 15 12 12 7 6 3 1 6 11 10 6 8 9 11 13 13 20 17 23 18 12 11 16 16 16 20 11 4 33 38 32 24 25 20 15 24 30 26 25 25 24 23 23 18 15 18 10 7 6 9 15
14 9 15 15 17 12 4 4 2 4 7 5 9 13 15 17 20 23 24 20 21 17 8 7 12 15 20 38 41 41 34 28 41 41 40 33 26 23 24 27 32 30 30 27 23 19 13 10 6 7 13 22 15 9
12 12 13 14 16 9 6 3 3 5 8 8 10 18 20 22 22 24 28 33 35 31 19 11 17 30 37 39 36 44 43 39 39 41 39 41 32 32 35 34 40 34 30 29 25 20 13 3 3 3 6 8 11 20
17 18 18 17 6 4 3 2 6 7 10 11 10 15 17 22 26 30 31 33 43 51 40 45 47 43 38 40 41 41 47 45 44 41 38 37 37 43 39 40 34 35 31 31 24 13 6 8 9 15 22 30 37 40
9 17 7 8 4 3 5 5 8 11 10 16 23 24 24 23 25 31 30 33 41 48 47 47 49 46 49 45 36 41 43 48 47 46 46 45 40 40 39 36 36 39 35 32 26 22 17 18 21 27 28 30 26 27
13 12 6 3 2 3 8 5 6 5 6 8 6 8 9 12 11 9 8 25 40 40 42 43 47 48 51 48 49 46 41 43 45 44 42 37 34 36 34 30 24 24 25 11 7 16 23 26 29 30 30 28 24 26
17 4 4 3 6 6 3 5 7 8 6 7 7 8 12 10 9 8 11 25 12 14 15 19 23 22 27 28 33 36 37 33 33 30 23 24 29 23 28 23 27 27 23 24 22 23 21 21 26 25 14 26 21 23
5 2 3 6 5 3 5 6 6 7 7 7 8 14 14 9 5 7 9 17 27 26 28 25 27 26 29 31 32 34 29 27 26 15 24 10 4 3 5 8 3 4 3 7 15 23 32 36 31 22 17 27 23 20
4 3 4 3 2 5 5 6 4 7 8 7 7 10 11 8 7 5 8 28 31 31 35 34 30 30 25 21 24 10 15 14 17 19 5 9 11 9 18 28 32 31 21 22 27 27 26 27 24 24 26 25 23 17
5 5 7 8 9 9 7 10 14 11 6 8 8 11 5 4 4 5 13 21 20 25 21 15 11 10 10 14 13 15 10 11 11 28 32 29 30 28 26 27 27 19 10 11 13 16 19 19 20 17 15 15 17 15
8 8 6 6 6 9 6 6 5 5 5 7 8 3 5 4 3 10 5 13 16 21 23 31 33 26 27 30 33 35 39 34 30 27 26 25 23 24 25 28 28 20 15 13 15 12 9 8 13 17 17 17 17 16
9 10 9 11 10 8 9 7 6 7 8 5 5 2 3 6 10 5 7 12 16 22 25 23 30 27 28 26 25 22 28 28 26 28 26 21 23 22 17 15 18 17 15 14 13 15 16 16 15 15 14 14 14 14
8 13 8 8 7 7 8 9 10 10 8 7 4 10 14 16 14 7 13 15 16 18 19 19 18 17 17 18 20 21 19 18 18 15 14 12 12 12 12 11 11 10 11 13 15 22 24 16 18 14 12 11 11 9
7 8 10 12 3 6 11 12 7 7 11 13 17 10 6 8 15 19 15 13 17 16 17 20 22 22 20 17 14 12 15 17 17 15 14 10 10 9 8 9 8 8 8 8 8 9 10 11 11 12 12 11 10 10
9 17 17 11 8 6 8 10 9 12 11 17 14 13 12 11 4 7 11 9 10 12 15 17 17 18 17 16 17 17 16 12 12 13 14 11 11 10 8 8 8 9 9 9 10 10 11 10 10 9 9 9 9 9
12 22 23 18 15 10 12 7 2 6 3 6 12 15 13 9 7 5 6 13 14 13 10 11 11 13 13 14 15 16 15 15 18 18 16 13 10 15 11 8 9 9 9 9 9 10 10 10 9 9 9 8 8 7
Wind_Direction_850mb
211 209 213 207 195 198 202 205 210 207 206 208 208 211 211 207 203 189 233 223 211 253 254 258 238 255 246 245 260 58 237 203 251 241 253 242 247 251 236 249 291 228 201 233 248 268 263 44 340 295 10 328 327 322
216 210 214 201 191 194 199 201 201 199 200 202 204 207 207 203 201 193 214 232 227 237 293 273 243 239 239 275 315 282 347 312 3 281 238 267 258 244 269 264 224 235 269 302 304 342 320 316 300 298 292 289 300 301
209 203 208 187 193 191 193 194 192 193 196 197 200 204 205 203 199 189 192 222 232 256 265 243 256 245 233 229 227 271 166 350 9 342 323 298 287 302 266 227 252 232 214 241 271 275 284 322 309 317 318 304 293 271
196 199 196 190 183 184 185 184 186 188 191 194 196 199 200 203 202 200 196 231 214 277 275 166 216 244 233 218 226 227 250 312 293 276 277 271 268 261 265 281 295 291 107 263 266 271 279 265 85 314 320 311 309 289
193 204 203 172 175 175 176 177 179 182 187 191 192 193 195 199 200 203 219 229 216 226 320 335 269 217 221 206 216 225 232 245 258 255 236 252 260 270 269 273 272 258 259 265 268 350 281 287 348 306 310 303 296 302
179 184 160 159 166 167 169 172 175 179 184 189 191 186 188 188 185 156 216 249 226 214 277 259 154 218 206 212 213 215 220 229 233 247 251 256 265 296 263 253 254 250 265 273 277 271 303 279 292 296 293 284 283 295
151 145 146 159 161 163 165 169 174 177 181 185 186 176 175 173 164 208 301 200 203 180 242 251 217 181 195 202 210 218 219 227 236 246 244 257 262 223 254 260 265 276 275 276 277 263 266 278 288 289 292 288 289 286
128 141 152 156 159 162 165 169 172 174 174 174 167 159 157 156 145 167 260 213 167 183 235 263 246 199 189 211 209 212 217 218 229 238 249 244 251 247 251 256 266 272 271 271 270 268 271 280 280 278 282 283 287 287
142 147 151 154 158 161 164 166 166 164 161 157 145 134 121 119 167 201 166 150 157 211 276 216 248 164 175 230 201 180 228 223 231 224 235 244 238 234 245 249 256 261 266 269 271 272 275 275 276 279 280 290 289 287
141 143 148 151 154 157 158 157 155 151 149 142 128 105 153 178 181 131 37 146 200 219 235 254 268 235 241 187 198 223 187 235 238 217 238 237 247 254 255 257 260 264 272 277 281 279 278 281 282 285 285 288 292 292
143 144 144 146 147 147 147 147 145 144 141 133 154 111 131 141 126 176 169 205 184 226 214 235 264 284 162 267 299 197 286 259 239 235 217 245 242 239 244 252 259 262 264 264 266 269 271 271 274 277 281 289 297 302
134 138 139 138 136 135 136 141 145 133 160 168 140 130 138 188 196 200 186 196 214 215 159 213 185 218 226 267 267 241 245 240 249 302 208 242 260 263 300 295 291 285 280 274 271 268 268 270 274 282 294 301 310 316
129 128 125 124 124 122 122 135 155 163 139 134 130 165 190 166 151 206 186 188 185 175 153 183 178 204 184 227 248 276 243 250 282 254 246 255 244 121 85 327 316 301 319 315 304 300 294 289 293 302 305 313 323 330
115 114 115 117 118 117 114 127 138 136 116 191 156 72 207 173 215 197 177 93 83 97 131 232 235 200 196 192 245 235 244 278 258 245 232 57 39 36 3 324 305 308 313 316 320 316 310 324 306 313 322 331 338 342
110 110 106 101 102 106 108 119 143 123 121 191 203 210 206 82 116 113 74 122 128 231 230 233 238 238 205 229 234 238 245 243 237 240 266 66 41 26 6 352 345 331 322 313 314 317 316 315 324 321 345 358 14 37
96 87 89 87 86 90 103 103 98 126 179 222 233 224 165 240 160 178 205 163 195 242 234 243 258 266 215 220 218 220 222 234 56 35 30 26 20 12 357 348 348 339 330 322 321 321 321 322 326 319 5 40 48 72
95 107 83 78 76 86 94 87 87 108 162 223 211 238 284 323 317 343 174 249 157 239 237 243 239 223 255 238 236 247 245 270 306 23 39 15 0 0 348 346 345 338 331 330 328 327 320 315 311 309 291 354 338 4
88 79 68 59 76 54 50 62 70 235 234 220 237 196 224 256 263 255 234 221 216 238 252 260 316 252 248 247 259 244 336 335 337 350 353 338 331 342 348 345 338 338 338 334 330 328 327 324 316 356 328 307 239 240
110 70 47 42 61 81 81 66 50 279 248 273 254 255 252 254 251 252 248 234 218 242 263 215 239 248 248 262 278 283 323 338 325 318 315 310 321 319 320 333 329 324 323 321 321 315 313 325 328 328 257 258 258 267
40 29 31 38 49 46 24 48 1 304 269 355 262 256 259 261 260 248 238 233 219 207 218 226 241 252 265 280 308 297 285 290 297 303 293 288 298 299 295 295 296 310 311 306 295 283 294 289 54 170 121 123 119 115
28 4 21 43 9 6 294 286 247 255 281 263 267 253 271 269 255 240 238 234 230 232 230 239 253 261 272 274 277 288 286 285 278 282 287 295 295 291 301 299 296 302 302 292 284 264 229 214 170 145 134 135 137 131
348 8 34 351 20 346 287 240 278 312 278 275 285 268 265 268 247 242 237 234 231 238 241 246 253 261 263 263 274 282 280 275 278 273 280 281 285 297 285 287 298 303 299 288 281 226 203 211 196 170 155 152 148 141
353 6 348 339 322 291 269 278 273 273 276 287 308 275 239 248 245 237 234 234 242 247 249 254 258 261 266 278 275 274 272 271 274 273 279 287 293 292 288 289 291 292 300 306 269 202 207 205 193 185 175 156 148 128
357 342 309 267 232 262 291 230 242 263 247 256 245 278 277 260 235 255 250 254 271 251 228 277 278 279 286 280 282 277 283 286 283 273 283 300 299 284 271 276 283 278 290 277 265 247 209 179 163 159 146 120 134 120
297 279 194 269 244 260 264 277 247 255 265 246 258 266 291 320 273 265 284 13 354 353 353 339 322 311 296 291 281 280 279 288 292 292 290 292 262 244 37 52 1 318 240 183 132 122 118 121 124 132 138 110 97 94
274 205 185 283 279 240 264 276 309 323 309 294 269 306 334 311 279 356 26 355 347 341 328 320 314 307 295 293 297 276 249 257 247 252 233 203 163 151 119 103 91 77 90 115 115 117 116 121 118 114 104 96 112 89
273 253 231 245 269 274 288 265 283 293 280 269 321 343 335 274 274 356 4 8 37 29 11 348 328 328 335 328 311 291 274 211 186 122 114 113 107 103 102 94 86 81 79 97 101 104 104 92 85 77 75 77 90 95
252 266 240 260 280 251 284 301 254 244 253 269 293 291 304 350 333 353 53 18 29 33 47 56 70 76 78 83 81 84 89 91 89 89 91 87 84 86 87 84 81 65 48 58 65 77 91 114 123 111 105 101 96 89
246 239 228 261 249 228 226 240 256 248 248 273 311 313 308 0 19 170 138 48 19 17 32 32 38 59 66 69 76 89 98 93 72 64 61 55 45 48 57 49 55 70 83 89 99 95 100 105 105 101 100 97 89 86
250 210 216 236 217 222 224 197 247 278 307 222 144 108 74 58 81 108 78 51 16 26 35 38 36 34 39 41 51 55 47 40 38 44 50 55 62 71 78 84 78 74 78 80 83 74 76 78 80 87 94 93 82 69
251 228 247 231 247 162 186 189 170 128 108 128 138 126 130 106 95 84 61 29 29 36 33 35 36 38 41 44 46 51 50 43 44 55 72 68 72 75 72 67 68 76 82 94 94 91 95 99 95 87 81 76 75 72
239 247 332 0 63 133 162 209 199 188 192 185 180 173 180 182 149 65 28 13 30 39 37 29 32 32 38 44 47 48 60 51 52 55 60 60 61 60 56 62 68 83 91 93 98 95 93 95 93 83 67 56 48 44
9 7 10 1 0 10 358 343 192 154 157 112 85 70 60 68 79 87 75 39 20 17 14 15 26 33 44 49 47 40 45 48 42 48 54 62 88 99 66 44 61 70 78 86 86 86 86 84 76 68 55 44 29 23